Location: Gro� Glienicke
(52.4675°N, 13.1079°E)
Time: 18:15:43
(UTC+00:00)

Nimbus 7 Rocket - Pass Details

Date: 06 July 2020
Orbit: 922 x 965 km, 99.4° (Epoch: 12 August)

Event Time Altitude Azimuth Distance (km) Brightness Sun altitude
Rises 22:25:21 0° 17° (NNE) 3,622 8.6 -14.3°
Reaches altitude 10° 22:27:50 10° 20° (NNE) 2,667 7.7 -14.3°
Maximum altitude 22:33:47 72° 105° (ESE) 982 4.4 -14.5°
Enters shadow 22:37:59 20° 187° (S) 2,004 5.6 -14.6°
